Time,TemperatureF,DewpointF,PressureIn,WindDirection,WindDirectionDegrees,WindSpeedMPH,WindSpeedGustMPH,Humidity,HourlyPrecipIn,Conditions,Clouds,dailyrainin,SoftwareType,DateUTC
2013-04-11 00:02:00,64.0,59.0,29.88,SW,224,0.0,0.0,84,0.00,,,0.00,,2013-04-11 05:02:00,
2013-04-11 00:13:00,64.0,59.0,29.88,SW,224,0.0,0.0,84,0.00,,,0.00,,2013-04-11 05:13:00,
2013-04-11 00:23:00,63.0,59.0,29.88,SW,224,0.0,0.0,87,0.00,,,0.00,,2013-04-11 05:23:00,
2013-04-11 00:32:00,63.0,59.0,29.88,South,190,0.0,1.0,88,0.00,,,0.00,,2013-04-11 05:32:00,
2013-04-11 00:42:00,63.0,59.0,29.88,South,190,0.0,1.0,88,0.00,,,0.00,,2013-04-11 05:42:00,
2013-04-11 00:52:00,62.0,58.0,29.88,SW,215,0.0,0.0,88,0.00,,,0.00,,2013-04-11 05:52:00,
2013-04-11 01:02:00,62.0,59.0,29.88,SW,214,0.0,1.0,89,0.00,,,0.00,,2013-04-11 06:02:00,
2013-04-11 01:12:00,62.0,59.0,29.88,SW,214,0.0,1.0,89,0.00,,,0.00,,2013-04-11 06:12:00,
2013-04-11 01:22:00,62.0,59.0,29.87,SW,214,0.0,0.0,89,0.00,,,0.00,,2013-04-11 06:22:00,
2013-04-11 01:32:00,61.0,58.0,29.87,SW,214,0.0,0.0,90,0.00,,,0.00,,2013-04-11 06:32:00,
2013-04-11 01:42:00,61.0,58.0,29.87,SW,214,0.0,0.0,90,0.00,,,0.00,,2013-04-11 06:42:00,
2013-04-11 01:52:00,60.0,57.0,29.86,SW,214,0.0,0.0,91,0.00,,,0.00,,2013-04-11 06:52:00,
2013-04-11 02:02:00,60.0,58.0,29.85,SW,214,0.0,0.0,92,0.00,,,0.00,,2013-04-11 07:02:00,
2013-04-11 02:12:00,60.0,58.0,29.85,SW,214,0.0,0.0,92,0.00,,,0.00,,2013-04-11 07:12:00,
2013-04-11 02:22:00,59.0,57.0,29.85,SW,214,0.0,0.0,93,0.00,,,0.00,,2013-04-11 07:22:00,
2013-04-11 02:32:00,59.0,57.0,29.85,SW,214,0.0,0.0,93,0.00,,,0.00,,2013-04-11 07:32:00,
2013-04-11 02:43:00,59.0,57.0,29.85,SW,214,0.0,0.0,93,0.00,,,0.00,,2013-04-11 07:43:00,
2013-04-11 02:52:00,59.0,57.0,29.84,SW,214,0.0,0.0,94,0.00,,,0.00,,2013-04-11 07:52:00,
2013-04-11 03:03:00,59.0,57.0,29.84,SW,214,0.0,0.0,94,0.00,,,0.00,,2013-04-11 08:03:00,
2013-04-11 03:12:00,59.0,57.0,29.84,SW,214,0.0,0.0,94,0.00,,,0.00,,2013-04-11 08:12:00,
2013-04-11 03:22:00,59.0,57.0,29.83,SW,214,0.0,0.0,94,0.00,,,0.00,,2013-04-11 08:22:00,
2013-04-11 03:32:00,59.0,57.0,29.83,SW,214,0.0,0.0,94,0.00,,,0.00,,2013-04-11 08:32:00,
2013-04-11 03:42:00,59.0,57.0,29.83,SW,214,0.0,0.0,94,0.00,,,0.00,,2013-04-11 08:42:00,
2013-04-11 03:52:00,59.0,57.0,29.83,SW,214,0.0,0.0,94,0.00,,,0.00,,2013-04-11 08:52:00,
2013-04-11 04:02:00,59.0,57.0,29.83,SW,214,0.0,0.0,94,0.00,,,0.00,,2013-04-11 09:02:00,
2013-04-11 04:12:00,59.0,57.0,29.83,SW,214,0.0,0.0,94,0.00,,,0.00,,2013-04-11 09:12:00,
2013-04-11 04:22:00,60.0,59.0,29.83,SW,214,0.0,0.0,95,0.00,,,0.00,,2013-04-11 09:22:00,
2013-04-11 04:33:00,61.0,59.0,29.83,SE,133,0.0,0.0,93,0.00,,,0.00,,2013-04-11 09:33:00,
2013-04-11 04:43:00,61.0,59.0,29.83,SE,133,0.0,0.0,93,0.00,,,0.00,,2013-04-11 09:43:00,
2013-04-11 04:53:00,61.0,59.0,29.83,SE,133,0.0,0.0,93,0.00,,,0.00,,2013-04-11 09:53:00,
2013-04-11 05:02:00,62.0,60.0,29.83,ENE,70,0.0,1.0,93,0.00,,,0.00,,2013-04-11 10:02:00,
2013-04-11 05:13:00,61.0,59.0,29.82,ENE,70,0.0,0.0,92,0.00,,,0.00,,2013-04-11 10:13:00,
2013-04-11 05:23:00,61.0,59.0,29.82,ENE,70,0.0,0.0,92,0.00,,,0.00,,2013-04-11 10:23:00,
2013-04-11 05:32:00,61.0,59.0,29.82,ENE,69,0.0,0.0,93,0.00,,,0.00,,2013-04-11 10:32:00,
2013-04-11 05:42:00,61.0,59.0,29.82,ENE,69,0.0,0.0,93,0.00,,,0.00,,2013-04-11 10:42:00,
2013-04-11 05:52:00,61.0,59.0,29.83,ENE,70,0.0,0.0,94,0.00,,,0.00,,2013-04-11 10:52:00,
2013-04-11 06:03:00,61.0,59.0,29.83,ENE,70,0.0,0.0,94,0.00,,,0.00,,2013-04-11 11:03:00,
2013-04-11 06:12:00,62.0,60.0,29.83,ENE,70,0.0,0.0,94,0.00,,,0.00,,2013-04-11 11:12:00,
2013-04-11 06:23:00,62.0,60.0,29.83,ENE,70,0.0,0.0,94,0.00,,,0.00,,2013-04-11 11:23:00,
2013-04-11 06:32:00,63.0,62.0,29.83,East,79,0.0,2.0,95,0.00,,,0.00,,2013-04-11 11:32:00,
2013-04-11 06:43:00,63.0,62.0,29.83,East,79,0.0,2.0,95,0.00,,,0.00,,2013-04-11 11:43:00,
2013-04-11 06:53:00,63.0,62.0,29.84,SSW,197,0.0,3.0,95,0.00,,,0.00,,2013-04-11 11:53:00,
2013-04-11 07:02:00,63.0,62.0,29.84,SE,124,0.0,2.0,95,0.00,,,0.00,,2013-04-11 12:02:00,
2013-04-11 07:13:00,63.0,62.0,29.84,SE,124,0.0,2.0,95,0.00,,,0.00,,2013-04-11 12:13:00,
2013-04-11 07:23:00,63.0,62.0,29.84,ENE,58,0.0,2.0,95,0.00,,,0.00,,2013-04-11 12:23:00,
2013-04-11 07:32:00,63.0,62.0,29.84,ENE,58,0.0,2.0,95,0.00,,,0.00,,2013-04-11 12:32:00,
2013-04-11 07:43:00,63.0,62.0,29.84,ENE,58,0.0,2.0,95,0.00,,,0.00,,2013-04-11 12:43:00,
2013-04-11 07:52:00,64.0,63.0,29.84,ENE,71,0.0,3.0,96,0.00,,,0.00,,2013-04-11 12:52:00,
2013-04-11 08:02:00,64.0,63.0,29.84,SE,137,0.0,3.0,97,0.00,,,0.00,,2013-04-11 13:02:00,
2013-04-11 08:13:00,65.0,64.0,29.84,SE,137,1.0,3.0,97,0.00,,,0.00,,2013-04-11 13:13:00,
2013-04-11 08:23:00,65.0,64.0,29.84,SE,137,1.0,3.0,97,0.00,,,0.00,,2013-04-11 13:23:00,
2013-04-11 08:32:00,66.0,65.0,29.84,SE,127,0.0,2.0,97,0.00,,,0.00,,2013-04-11 13:32:00,
2013-04-11 08:43:00,66.0,65.0,29.84,SE,127,0.0,2.0,97,0.00,,,0.00,,2013-04-11 13:43:00,
2013-04-11 08:54:00,67.0,66.0,29.84,SE,131,0.0,3.0,96,0.00,,,0.00,,2013-04-11 13:54:00,
2013-04-11 09:03:00,69.0,68.0,29.84,SE,124,1.0,3.0,95,0.00,,,0.00,,2013-04-11 14:03:00,
2013-04-11 09:12:00,69.0,68.0,29.84,SE,124,1.0,3.0,95,0.00,,,0.00,,2013-04-11 14:12:00,
2013-04-11 09:22:00,71.0,68.0,29.84,SE,136,1.0,6.0,91,0.00,,,0.00,,2013-04-11 14:22:00,
2013-04-11 09:32:00,72.0,69.0,29.84,SE,124,2.0,8.0,89,0.00,,,0.00,,2013-04-11 14:32:00,
2013-04-11 09:42:00,72.0,69.0,29.84,SE,124,2.0,8.0,89,0.00,,,0.00,,2013-04-11 14:42:00,
2013-04-11 09:53:00,73.0,69.0,29.84,SW,233,2.0,11.0,88,0.00,,,0.00,,2013-04-11 14:53:00,
2013-04-11 10:02:00,74.0,70.0,29.84,SSW,198,3.0,9.0,86,0.00,,,0.00,,2013-04-11 15:02:00,
2013-04-11 10:12:00,74.0,70.0,29.84,SSW,198,3.0,9.0,86,0.00,,,0.00,,2013-04-11 15:12:00,
2013-04-11 10:22:00,74.0,69.0,29.85,South,190,4.0,14.0,85,0.00,,,0.00,,2013-04-11 15:22:00,
2013-04-11 10:32:00,75.0,70.0,29.84,SSW,198,2.0,8.0,84,0.00,,,0.00,,2013-04-11 15:32:00,
2013-04-11 10:43:00,75.0,70.0,29.84,SSW,198,2.0,8.0,84,0.00,,,0.00,,2013-04-11 15:43:00,
2013-04-11 10:53:00,76.0,70.0,29.84,SSE,158,3.0,10.0,82,0.00,,,0.00,,2013-04-11 15:53:00,
2013-04-11 11:02:00,77.0,69.0,29.84,SSE,149,3.0,8.0,77,0.00,,,0.00,,2013-04-11 16:02:00,
2013-04-11 11:13:00,77.0,69.0,29.84,SSE,149,3.0,8.0,77,0.00,,,0.00,,2013-04-11 16:13:00,
2013-04-11 11:23:00,77.0,70.0,29.83,SSW,203,3.0,8.0,78,0.00,,,0.00,,2013-04-11 16:23:00,
2013-04-11 11:32:00,77.0,70.0,29.83,SE,139,3.0,12.0,79,0.00,,,0.00,,2013-04-11 16:32:00,
2013-04-11 11:42:00,77.0,70.0,29.83,SE,139,3.0,12.0,79,0.00,,,0.00,,2013-04-11 16:42:00,
2013-04-11 11:53:00,79.0,71.0,29.82,SSW,209,3.0,9.0,76,0.00,,,0.00,,2013-04-11 16:53:00,
2013-04-11 12:02:00,79.0,71.0,29.82,ESE,113,3.0,8.0,76,0.00,,,0.00,,2013-04-11 17:02:00,
2013-04-11 12:13:00,79.0,71.0,29.82,ESE,113,3.0,8.0,76,0.00,,,0.00,,2013-04-11 17:13:00,
2013-04-11 12:23:00,79.0,70.0,29.81,SE,142,4.0,9.0,73,0.00,,,0.00,,2013-04-11 17:23:00,
2013-04-11 12:33:00,79.0,70.0,29.80,East,88,2.0,10.0,75,0.00,,,0.00,,2013-04-11 17:33:00,
2013-04-11 12:43:00,79.0,70.0,29.80,East,88,2.0,10.0,75,0.00,,,0.00,,2013-04-11 17:43:00,
2013-04-11 12:53:00,80.0,70.0,29.79,WSW,243,3.0,9.0,72,0.00,,,0.00,,2013-04-11 17:53:00,
2013-04-11 13:03:00,80.0,69.0,29.78,West,260,4.0,19.0,70,0.00,,,0.00,,2013-04-11 18:03:00,
2013-04-11 13:13:00,80.0,69.0,29.78,West,260,4.0,19.0,70,0.00,,,0.00,,2013-04-11 18:13:00,
2013-04-11 13:23:00,80.0,69.0,29.77,East,86,3.0,12.0,70,0.00,,,0.00,,2013-04-11 18:23:00,
2013-04-11 13:33:00,76.0,70.0,29.77,WSW,238,6.0,16.0,83,0.05,,,0.05,,2013-04-11 18:33:00,
2013-04-11 13:43:00,76.0,70.0,29.77,WSW,238,6.0,16.0,83,0.05,,,0.05,,2013-04-11 18:43:00,
2013-04-11 13:53:00,78.0,73.0,29.75,SW,224,6.0,12.0,84,0.05,,,0.05,,2013-04-11 18:53:00,
2013-04-11 14:03:00,80.0,71.0,29.72,SSW,211,5.0,17.0,75,0.05,,,0.05,,2013-04-11 19:03:00,
2013-04-11 14:14:00,80.0,71.0,29.72,SSW,211,5.0,17.0,75,0.05,,,0.05,,2013-04-11 19:14:00,
2013-04-11 14:22:00,81.0,71.0,29.72,ESE,122,5.0,18.0,72,0.05,,,0.05,,2013-04-11 19:22:00,
2013-04-11 14:32:00,81.0,71.0,29.72,ESE,123,6.0,19.0,71,0.00,,,0.05,,2013-04-11 19:32:00,
2013-04-11 14:43:00,81.0,71.0,29.72,ESE,123,6.0,19.0,71,0.00,,,0.05,,2013-04-11 19:43:00,
2013-04-11 14:53:00,81.0,71.0,29.71,SSE,159,6.0,19.0,71,0.00,,,0.05,,2013-04-11 19:53:00,
2013-04-11 15:03:00,81.0,70.0,29.70,South,191,6.0,13.0,70,0.00,,,0.05,,2013-04-11 20:03:00,
2013-04-11 15:13:00,81.0,70.0,29.70,South,191,6.0,13.0,70,0.00,,,0.05,,2013-04-11 20:13:00,
2013-04-11 15:22:00,80.0,71.0,29.71,SW,222,7.0,17.0,73,0.00,,,0.05,,2013-04-11 20:22:00,
2013-04-11 15:33:00,80.0,71.0,29.70,SSE,151,5.0,17.0,73,0.00,,,0.05,,2013-04-11 20:33:00,
2013-04-11 15:43:00,80.0,71.0,29.70,SSE,151,5.0,17.0,73,0.00,,,0.05,,2013-04-11 20:43:00,
2013-04-11 15:53:00,80.0,71.0,29.68,SE,136,4.0,14.0,74,0.00,,,0.05,,2013-04-11 20:53:00,
2013-04-11 16:03:00,79.0,70.0,29.68,ESE,112,6.0,19.0,74,0.00,,,0.05,,2013-04-11 21:03:00,
2013-04-11 16:12:00,79.0,70.0,29.68,ESE,112,6.0,19.0,74,0.00,,,0.05,,2013-04-11 21:12:00,
2013-04-11 16:22:00,80.0,71.0,29.67,SW,222,4.0,13.0,74,0.00,,,0.05,,2013-04-11 21:22:00,
2013-04-11 16:33:00,79.0,71.0,29.66,SSE,162,4.0,14.0,76,0.00,,,0.05,,2013-04-11 21:33:00,
2013-04-11 16:43:00,79.0,71.0,29.66,SSE,162,4.0,14.0,76,0.00,,,0.05,,2013-04-11 21:43:00,
2013-04-11 16:54:00,78.0,71.0,29.65,SSW,207,5.0,15.0,78,0.00,,,0.05,,2013-04-11 21:54:00,
2013-04-11 17:03:00,77.0,71.0,29.65,WSW,253,4.0,12.0,81,0.00,,,0.05,,2013-04-11 22:03:00,
2013-04-11 17:13:00,77.0,71.0,29.65,WSW,253,4.0,12.0,81,0.00,,,0.05,,2013-04-11 22:13:00,
2013-04-11 17:23:00,76.0,70.0,29.63,SW,222,5.0,11.0,82,0.00,,,0.05,,2013-04-11 22:23:00,
2013-04-11 17:33:00,76.0,70.0,29.62,SSW,210,5.0,15.0,81,0.00,,,0.05,,2013-04-11 22:33:00,
2013-04-11 17:44:00,76.0,70.0,29.62,SSW,210,5.0,15.0,81,0.00,,,0.05,,2013-04-11 22:44:00,
2013-04-11 17:53:00,76.0,70.0,29.63,WSW,238,4.0,13.0,82,0.00,,,0.05,,2013-04-11 22:53:00,
2013-04-11 18:03:00,76.0,70.0,29.62,South,175,4.0,14.0,82,0.00,,,0.05,,2013-04-11 23:03:00,
2013-04-11 18:13:00,76.0,70.0,29.62,South,175,4.0,14.0,82,0.00,,,0.05,,2013-04-11 23:13:00,
2013-04-11 18:23:00,75.0,69.0,29.62,SW,232,6.0,18.0,83,0.00,,,0.05,,2013-04-11 23:23:00,
2013-04-11 18:32:00,75.0,70.0,29.62,East,96,7.0,12.0,84,0.00,,,0.05,,2013-04-11 23:32:00,
2013-04-11 18:43:00,75.0,70.0,29.62,East,96,7.0,12.0,84,0.00,,,0.05,,2013-04-11 23:43:00,
2013-04-11 18:53:00,75.0,70.0,29.61,ENE,78,5.0,18.0,84,0.00,,,0.05,,2013-04-11 23:53:00,
2013-04-11 19:02:00,75.0,70.0,29.62,SSW,208,7.0,15.0,85,0.00,,,0.05,,2013-04-12 00:02:00,
2013-04-11 19:12:00,75.0,70.0,29.62,SSW,208,7.0,15.0,85,0.00,,,0.05,,2013-04-12 00:12:00,
2013-04-11 19:22:00,74.0,70.0,29.61,WSW,248,2.0,22.0,86,0.00,,,0.05,,2013-04-12 00:22:00,
2013-04-11 19:32:00,74.0,70.0,29.60,SSE,149,4.0,15.0,86,0.00,,,0.05,,2013-04-12 00:32:00,
2013-04-11 19:42:00,74.0,70.0,29.60,SSE,149,4.0,15.0,86,0.00,,,0.05,,2013-04-12 00:42:00,
2013-04-11 19:53:00,74.0,70.0,29.60,SW,219,3.0,13.0,88,0.00,,,0.05,,2013-04-12 00:53:00,
2013-04-11 20:02:00,73.0,70.0,29.59,SW,221,3.0,9.0,89,0.01,,,0.06,,2013-04-12 01:02:00,
2013-04-11 20:12:00,73.0,70.0,29.59,SW,221,3.0,9.0,89,0.01,,,0.06,,2013-04-12 01:12:00,
2013-04-11 20:22:00,73.0,70.0,29.60,WSW,248,2.0,8.0,91,0.05,,,0.10,,2013-04-12 01:22:00,
2013-04-11 20:32:00,72.0,70.0,29.62,South,169,4.0,12.0,93,0.07,,,0.12,,2013-04-12 01:32:00,
2013-04-11 20:42:00,72.0,70.0,29.62,South,169,4.0,12.0,93,0.07,,,0.12,,2013-04-12 01:42:00,
2013-04-11 20:52:00,72.0,70.0,29.64,SW,232,3.0,14.0,93,0.11,,,0.16,,2013-04-12 01:52:00,
2013-04-11 21:03:00,72.0,70.0,29.66,WSW,257,3.0,10.0,94,0.20,,,0.26,,2013-04-12 02:03:00,
2013-04-11 21:12:00,72.0,70.0,29.66,WSW,257,3.0,10.0,94,0.20,,,0.26,,2013-04-12 02:12:00,
2013-04-11 21:22:00,68.0,66.0,29.71,SSE,150,12.0,22.0,94,0.88,,,0.98,,2013-04-12 02:22:00,
2013-04-11 21:32:00,67.0,66.0,29.67,SSW,193,7.0,19.0,96,1.04,,,1.15,,2013-04-12 02:32:00,
2013-04-11 21:42:00,67.0,66.0,29.67,SSW,193,7.0,19.0,96,1.04,,,1.15,,2013-04-12 02:42:00,
2013-04-11 21:52:00,68.0,67.0,29.69,SW,226,8.0,14.0,97,1.06,,,1.22,,2013-04-12 02:52:00,
2013-04-11 22:02:00,68.0,67.0,29.64,South,170,3.0,15.0,96,1.01,,,1.28,,2013-04-12 03:02:00,
2013-04-11 22:12:00,68.0,67.0,29.64,South,170,3.0,15.0,96,1.01,,,1.28,,2013-04-12 03:12:00,
2013-04-11 22:22:00,66.0,65.0,29.64,SW,225,2.0,15.0,95,0.27,,,1.30,,2013-04-12 03:22:00,
2013-04-11 22:33:00,66.0,65.0,29.67,West,280,7.0,16.0,96,0.13,,,1.30,,2013-04-12 03:33:00,
2013-04-11 22:43:00,66.0,65.0,29.67,West,280,7.0,16.0,96,0.13,,,1.30,,2013-04-12 03:43:00,
2013-04-11 22:53:00,66.0,65.0,29.67,SW,217,6.0,15.0,96,0.08,,,1.30,,2013-04-12 03:53:00,
2013-04-11 23:03:00,67.0,66.0,29.69,SSW,204,4.0,12.0,96,0.02,,,1.30,,2013-04-12 04:03:00,
2013-04-11 23:13:00,67.0,66.0,29.69,SSW,204,4.0,12.0,96,0.02,,,1.30,,2013-04-12 04:13:00,
2013-04-11 23:23:00,67.0,66.0,29.70,South,190,5.0,12.0,96,0.00,,,1.30,,2013-04-12 04:23:00,
2013-04-11 23:33:00,66.0,65.0,29.70,SSW,207,2.0,5.0,96,0.00,,,1.30,,2013-04-12 04:33:00,
2013-04-11 23:43:00,66.0,65.0,29.70,SSW,207,2.0,5.0,96,0.00,,,1.30,,2013-04-12 04:43:00,
2013-04-11 23:53:00,66.0,65.0,29.70,ESE,119,2.0,8.0,97,0.00,,,1.30,,2013-04-12 04:53:00,